Regional Weather Roundup
Issued by NWS

Home | Current Version | Previous Version | Text Only | Print | Product List | Glossary Off
Versions: 1 2 3 4 5 6 7 8 9 10 11 12 13 14 15 16 17 18 19 20 21 22 23 24 25 26 27 28 29 30 31 32 33 34 35 36 37 38 39 40 41 42 43 44 45 46 47 48 49 50

000
ASUS45 KCYS 242010
RWRWY

WYOMING REGIONAL WEATHER ROUNDUP
NATIONAL WEATHER SERVICE CHEYENNE WY
200 PM MDT THU JUL 24 2014

NOTE:  "FAIR" INDICATES FEW OR NO CLOUDS BELOW 12,000 FEET
WITH NO SIGNIFICANT WEATHER AND/OR OBSTRUCTIONS TO VISIBILITY.

WYZ001-242100-
YELLOWSTONE NATIONAL PARK

CITY           SKY/WX    TMP DP  RH WIND       PRES   REMARKS
LK YELLOWSTONE   N/A     70  31  23 VRB7G18   30.27S
W YELLOWSTONE  NOT AVBL

$$
WYZ002>013-054>058-071-098>099-242100-
NORTHERN WYOMING

CITY           SKY/WX    TMP DP  RH WIND       PRES   REMARKS
JACKSON        SUNNY     81  30  16 SW12      30.16F
CODY           NOT AVBL
GREYBULL       SUNNY     99  37  11 CALM      29.80F HX  94
WORLAND        MOSUNNY  101  33   9 SW25G32   29.83F HX  95
SHERIDAN       SUNNY     99  52  20 E10       29.79F HX  96
BUFFALO        MOSUNNY   99  33  10 SW25G31   29.91S HX  93
GILLETTE       MOSUNNY  100  41  13 W20G29    29.84F HX  95
HULETT         FAIR      91  59  33 MISG      29.85  HX  90
NEWCASTLE      FAIR      99  32   9 W21G28    29.86  HX  93

$$
WYZ014>020-022>026-101>103-242100-
CENTRAL WYOMING

CITY           SKY/WX    TMP DP  RH WIND       PRES   REMARKS
BIG PINEY      MOSUNNY   86  35  16 W17G30    30.20F
PINEDALE       PTCLDY    82  30  15 SW13G32   30.20F
DUBOIS         FAIR      81  28  15 W26G37    30.17S
LANDER         MOSUNNY   94  33  11 SW17G37   30.02F
RIVERTON       MOSUNNY   94  31  10 W21G29    30.01F
CASPER         PTSUNNY   90  34  13 SW23G36   30.02S
DOUGLAS        PTSUNNY   96  42  15 W25G36    29.97S HX  92

$$
WYZ021-027>030-104>119-242100-
SOUTHERN WYOMING

CITY           SKY/WX    TMP DP  RH WIND       PRES   REMARKS
EVANSTON       MOSUNNY   86  37  17 SW23G35   30.23F
KEMMERER       PTCLDY    84  27  12 SW21G36   30.23F
FORT BRIDGER   FAIR      87  34  15 W23G29    30.25F
ROCK SPRINGS   PTSUNNY   86  39  19 SW14G28   30.18F
DIXON          FAIR      84  43  23 W20G25    30.26F
RAWLINS        PTSUNNY   86  40  19 SW31G45   30.20F
SARATOGA       CLOUDY    77  43  29 SW17G24   30.28F
LARAMIE        PTSUNNY   78  43  28 W20G29    30.26R
CHEYENNE       MOSUNNY   90  47  22 W25G38    30.13F
TORRINGTON     MOSUNNY  100  45  15 W13G22    29.90F HX  96
PINE BLUFFS    FAIR      97  41  14 W13G23    30.03F HX  92

$$


USA.gov is the U.S. government's official web portal to all federal, state and local government web resources and services.